GFSSW_sfc_dewp_000.txt.gz
Dewpoint
52 52 52 52 52 53 54 54 55 54 55 55 55 54 54 55 55 45 32 32 41 60 63 57 52 49 48 43 44 44 39 36 35 35 33 35 33 34 34 30 28 32 32 37 45
50 50 50 51 51 50 52 52 52 53 54 54 54 54 55 55 51 44 41 55 59 63 53 50 47 47 43 42 43 41 39 37 36 34 35 36 38 38 32 34 27 26 30 39 43
51 51 51 50 49 50 51 52 52 51 53 54 54 54 55 54 39 20 53 53 59 59 42 48 47 47 44 43 41 41 37 38 36 36 38 39 38 39 35 35 35 31 31 35 41
52 52 52 51 51 50 49 50 51 52 52 53 53 54 55 50 5 20 64 65 65 53 34 45 47 43 42 40 42 40 40 39 37 37 38 37 38 37 37 36 36 34 34 38 40
51 51 52 52 52 52 51 51 50 51 52 52 52 54 50 43 31 18 52 46 52 48 32 34 44 42 40 40 39 38 39 39 40 39 38 39 38 37 37 37 37 35 32 34 41
51 51 51 51 51 52 52 52 52 50 50 51 52 52 47 39 37 25 41 29 27 46 39 30 34 42 39 37 39 40 39 38 39 38 37 37 38 39 39 40 37 35 34 34 40
51 51 51 50 50 51 52 53 52 52 50 49 51 48 45 41 44 44 44 37 28 37 39 35 29 27 30 27 28 28 30 31 30 29 32 35 34 34 36 37 33 32 31 32 40
50 51 51 50 50 50 51 52 53 52 51 50 50 46 39 44 45 45 44 41 37 22 32 38 36 31 27 27 26 24 26 23 24 30 31 33 28 31 34 34 32 32 32 33 35
50 52 51 50 51 51 51 52 52 51 51 48 45 44 37 45 42 44 42 34 24 17 15 21 34 31 27 26 24 24 19 20 21 24 26 32 26 30 33 32 31 32 33 34 34
51 52 51 50 51 51 52 51 49 49 47 44 42 37 41 31 37 35 40 37 21 12 15 19 27 27 25 25 18 19 20 21 19 20 26 25 27 29 29 30 32 33 33 34 35
50 51 52 50 50 51 48 42 37 41 43 37 35 36 33 36 39 34 29 33 24 21 12 22 21 23 21 25 24 20 17 14 19 21 23 25 27 29 30 30 30 30 31 33 35
51 51 51 50 51 51 45 38 39 39 36 38 38 38 39 39 36 37 29 21 23 16 14 23 18 18 25 25 25 23 17 16 20 26 26 27 26 27 28 28 30 30 30 32 35
52 51 51 50 51 44 39 40 41 37 36 35 35 35 36 37 37 30 35 23 21 15 13 10 14 19 25 27 24 22 20 20 20 26 28 27 25 27 29 31 31 32 35 35 35
52 51 51 51 42 41 41 39 44 42 31 28 32 33 34 33 30 29 32 25 17 14 10 11 11 17 27 27 26 24 25 23 25 26 21 28 25 26 28 28 29 28 29 32 36
52 50 51 50 42 39 40 45 44 40 16 10 22 33 33 27 25 24 29 28 24 11 14 9 12 16 21 25 28 25 26 26 28 27 25 25 24 24 28 26 27 29 28 29 31
51 50 50 46 44 43 45 44 41 28 15 17 22 23 20 29 30 27 29 28 28 13 11 9 14 12 19 24 24 24 23 25 26 25 22 22 24 22 26 26 27 28 29 34 41
51 50 49 46 39 43 43 39 26 20 21 18 23 24 19 24 24 25 26 24 23 21 16 15 9 16 15 14 24 22 20 18 20 21 21 23 23 20 27 29 27 27 29 41 46
50 49 46 45 44 45 40 32 20 18 18 23 25 19 17 25 26 28 28 25 21 21 19 16 14 11 17 15 15 21 21 19 14 19 22 26 24 24 29 30 31 31 32 43 48
47 43 42 43 45 45 35 24 20 23 25 24 23 19 20 21 26 30 28 26 22 19 16 17 15 17 13 15 14 18 19 21 22 25 22 24 26 27 28 27 28 34 40 43 47
43 41 39 44 46 45 32 24 27 27 25 24 21 23 19 19 23 28 28 31 30 31 19 18 15 16 15 15 16 16 20 19 19 18 18 21 24 24 26 25 32 36 37 43 48
39 33 37 46 45 39 29 26 27 27 27 26 25 25 20 22 25 28 31 34 32 29 31 19 17 18 17 15 13 15 16 19 20 22 21 20 23 28 26 26 28 33 37 44 48
39 27 39 44 35 33 28 30 33 30 29 27 29 27 24 25 26 29 31 32 36 31 28 32 20 16 16 16 15 14 14 21 15 21 22 24 24 29 28 27 29 33 40 45 48
36 34 39 42 28 29 30 30 30 28 27 26 25 24 23 23 23 26 30 33 35 33 31 31 25 16 17 18 19 13 14 14 20 24 20 18 22 29 34 33 33 36 42 46 48
36 28 32 36 36 32 29 27 29 30 28 27 25 24 25 25 26 28 27 29 36 34 40 32 28 25 13 15 18 16 14 13 13 15 19 21 22 23 32 31 37 40 44 46 47
33 29 33 29 26 30 32 29 28 28 32 30 27 28 28 26 28 30 32 33 33 38 35 30 26 29 29 27 21 20 15 14 12 13 14 17 20 22 24 34 38 41 45 46 47
32 35 34 33 33 29 27 26 28 29 29 29 28 28 27 25 27 28 30 33 32 34 33 30 26 27 28 27 26 18 15 14 13 13 13 22 19 22 34 41 41 42 44 45 46
40 41 38 32 31 30 29 29 29 30 30 31 29 27 27 26 31 29 31 34 34 32 32 29 26 25 22 25 20 15 15 17 17 15 14 17 15 30 38 40 41 42 43 44 46

GFSSW_sfc_dewp_003.txt.gz
Dewpoint
50 50 50 50 50 50 50 50 52 52 53 54 55 55 55 55 55 42 20 32 41 58 62 54 53 46 38 37 45 44 37 31 31 31 28 33 32 34 34 35 32 31 34 36 43
51 50 50 51 51 50 50 50 50 52 52 53 55 54 54 55 49 41 42 52 57 60 50 41 39 45 42 41 41 40 37 34 34 32 32 33 37 37 36 34 35 36 36 34 41
51 52 52 52 52 52 52 51 50 50 50 50 53 53 55 53 30 13 60 58 54 62 39 38 35 41 39 43 41 39 37 36 35 35 36 35 36 36 35 33 34 35 37 38 38
51 51 51 51 51 52 52 52 52 51 50 51 52 52 54 48 14 40 51 58 65 48 33 30 38 39 34 37 40 36 38 37 36 37 37 36 37 37 38 37 38 39 39 38 38
51 51 51 50 50 50 51 52 52 52 51 50 51 52 48 43 29 20 48 46 44 48 31 32 38 35 32 35 37 40 37 39 39 39 39 39 39 38 37 37 37 38 40 39 39
50 51 51 51 50 50 50 51 52 52 52 51 49 51 44 36 39 39 41 41 24 41 33 29 35 35 33 36 36 33 37 37 38 38 38 37 36 37 37 39 38 40 40 39 39
50 50 51 50 50 50 51 52 52 52 52 50 50 45 41 36 40 40 39 40 37 31 30 30 28 36 35 33 36 37 37 38 38 38 37 35 29 31 33 35 36 37 38 39 39
50 51 51 50 50 50 51 52 52 52 52 51 51 44 37 40 41 42 42 41 41 39 36 27 34 27 30 29 26 25 26 22 23 27 28 27 23 25 30 33 34 36 37 36 38
50 51 51 51 50 50 51 52 50 50 51 50 45 43 34 41 38 41 43 38 32 34 30 19 31 33 28 25 25 25 19 21 21 26 26 30 25 26 30 32 33 35 35 35 37
50 51 52 51 51 51 52 50 48 49 46 45 42 36 32 25 36 37 39 41 34 24 23 17 25 24 26 23 19 20 21 21 21 21 22 21 24 26 30 31 33 34 35 37 37
50 51 51 51 51 51 49 43 37 39 39 36 34 33 29 30 32 29 38 38 37 21 17 17 18 19 18 24 24 23 22 22 23 21 19 19 21 26 30 31 31 33 34 37 41
50 51 51 50 51 51 45 38 39 38 34 34 36 34 35 34 31 27 31 30 29 20 17 17 16 17 19 19 21 22 22 21 20 19 20 20 22 26 29 30 30 34 36 38 39
51 51 51 50 51 44 43 40 41 42 34 32 34 33 33 35 34 31 32 28 23 20 15 15 15 15 17 18 21 21 19 20 19 19 21 23 22 22 24 32 31 32 35 38 40
51 51 51 51 43 42 40 41 44 44 30 24 28 31 32 33 30 33 28 25 21 18 16 13 14 13 14 16 22 19 21 20 20 22 15 25 19 25 26 27 28 29 35 37 39
51 50 51 50 43 38 40 44 43 41 11 14 27 33 26 28 26 24 31 27 26 16 17 14 11 14 14 17 22 19 20 23 24 24 25 23 23 23 26 25 27 29 29 37 39
51 50 49 44 45 42 44 44 42 28 12 17 23 23 17 21 24 27 27 26 25 25 16 14 13 11 14 19 22 23 23 26 26 24 20 20 23 20 22 24 24 29 32 34 40
50 49 47 44 39 44 44 40 26 17 17 18 22 22 16 21 24 28 28 25 19 22 18 13 11 12 11 17 23 27 26 17 16 17 17 20 21 23 23 22 25 29 33 37 47
50 48 46 44 47 46 43 34 20 13 16 20 22 18 10 22 25 29 26 24 22 22 20 13 10 10 13 14 20 26 24 17 18 17 14 25 19 21 30 28 27 30 36 39 48
48 44 44 45 46 45 39 24 14 17 22 23 20 16 15 17 22 24 26 32 21 20 21 18 14 12 13 12 16 22 22 21 17 24 19 24 28 31 32 32 34 34 37 43 48
41 41 42 47 48 45 36 23 24 26 25 24 18 17 15 15 21 25 27 35 33 32 32 25 19 16 10 11 12 13 17 19 17 13 12 12 21 23 30 30 31 34 39 45 49
42 37 42 44 45 37 29 27 29 28 28 25 22 21 20 17 26 29 30 34 35 33 34 31 24 18 13 14 11 15 17 19 21 18 14 11 12 30 33 32 32 33 41 45 48
41 33 40 46 35 34 30 29 32 29 28 27 27 27 26 24 23 27 28 29 35 36 33 34 30 19 17 15 16 16 17 22 14 21 16 25 20 33 37 35 35 34 41 46 48
36 34 41 44 29 28 26 27 29 28 28 27 25 24 26 25 25 25 30 32 35 37 36 35 28 19 19 19 19 17 17 21 27 28 21 13 15 31 36 36 36 39 42 47 49
38 31 36 41 36 30 28 25 26 28 29 28 27 28 28 26 28 29 30 33 38 37 41 36 29 28 13 17 18 18 17 19 22 19 20 20 15 22 25 32 37 42 45 46 48
38 31 35 30 31 32 28 26 27 25 28 29 27 28 29 26 25 33 35 36 35 38 34 32 27 26 26 26 24 17 15 15 18 21 19 20 21 21 30 31 39 43 46 47 47
37 35 36 33 33 30 27 25 25 26 28 24 27 27 26 24 25 26 33 33 33 34 31 33 26 28 24 23 24 20 17 16 16 17 18 18 19 23 27 37 41 44 45 46 47
41 43 39 33 31 32 29 28 30 35 30 29 30 30 28 26 28 30 31 31 32 33 32 31 29 29 21 25 23 19 25 20 18 19 18 16 22 23 25 32 42 44 46 46 47

GFSSW_sfc_dewp_009.txt.gz
Dewpoint
51 51 51 52 51 52 52 53 53 53 52 52 51 52 53 54 54 40 35 35 40 59 62 47 45 43 40 36 31 33 31 29 28 27 26 26 25 27 30 31 31 31 32 34 35
51 51 51 51 51 51 51 51 52 53 53 52 52 52 53 54 44 31 44 54 60 61 29 32 40 38 36 35 33 31 32 31 30 29 28 28 28 27 29 31 31 32 33 33 34
49 50 50 51 51 51 50 50 51 51 52 53 52 52 52 51 34 19 56 58 60 55 24 20 34 36 34 32 33 32 31 34 32 31 31 30 30 29 29 31 32 31 33 34 34
49 49 50 51 51 51 51 51 51 51 51 52 52 52 52 44 16 41 50 54 56 49 39 24 21 32 30 29 30 31 33 33 32 32 31 30 30 29 31 32 33 32 35 35 35
50 50 51 51 51 51 52 51 51 52 52 52 52 52 44 31 29 30 52 49 35 34 41 29 21 27 30 28 29 28 28 29 31 31 31 32 30 31 31 33 34 34 35 36 35
50 50 51 51 52 51 52 52 52 51 51 52 52 51 43 29 27 26 29 31 31 30 34 31 24 24 28 30 29 30 29 28 28 28 31 31 30 31 33 34 34 34 34 34 34
50 51 51 51 51 51 52 52 52 52 51 52 51 46 39 31 26 24 23 23 25 27 28 27 29 26 28 29 29 29 28 29 29 27 27 29 30 31 32 32 33 33 32 33 33
51 52 51 51 51 51 51 52 52 52 51 52 51 45 37 27 23 18 19 19 22 27 30 30 28 29 27 29 28 27 29 27 28 28 27 28 28 31 32 31 31 31 30 31 32
51 51 51 51 51 51 52 52 51 51 51 51 46 41 29 36 27 27 25 23 23 25 28 29 28 26 25 26 26 28 26 26 26 28 28 28 29 32 32 31 33 34 32 31 32
51 51 52 51 51 51 52 51 49 49 48 44 40 35 32 21 13 27 30 25 27 28 28 28 27 23 21 21 19 22 25 26 25 25 26 25 27 29 29 28 30 31 30 31 32
51 51 51 51 51 51 48 38 35 36 39 32 24 28 20 16 16 17 19 21 28 28 26 26 23 18 18 21 22 21 22 22 24 25 25 26 25 26 28 29 29 30 32 32 33
51 50 50 51 51 51 47 32 32 34 30 28 23 21 21 21 20 19 19 18 22 24 23 23 22 22 18 17 19 21 21 23 25 25 27 27 28 29 29 30 30 32 31 31 32
51 51 50 51 50 47 35 33 35 34 30 25 20 17 17 21 22 22 20 18 16 15 22 20 20 20 18 16 17 20 22 24 23 26 26 27 26 28 29 29 28 28 30 31 32
51 51 51 50 43 35 32 34 33 35 27 13 18 21 23 25 24 27 25 22 16 11 15 21 18 17 17 15 15 17 20 22 24 25 22 24 22 26 26 26 27 27 30 30 33
51 51 50 49 41 34 34 35 35 36 15 11 15 27 21 19 19 21 25 25 18 13 10 14 19 17 17 15 15 17 19 22 23 22 23 22 20 22 24 23 24 27 28 30 32
50 50 49 41 41 39 36 37 35 30 15 11 17 21 17 15 15 14 22 27 24 18 13 13 15 18 17 16 15 16 18 21 23 22 20 22 21 21 20 22 24 28 27 29 29
50 50 47 41 38 38 39 36 30 21 15 18 18 18 18 11 9 8 12 19 25 18 14 13 15 17 18 16 18 18 22 18 21 20 21 22 19 22 24 22 23 25 26 31 37
50 48 46 41 41 41 44 35 25 16 12 12 11 9 7 6 6 5 15 13 15 18 18 7 7 16 19 17 17 18 21 18 20 19 18 21 19 19 23 25 27 27 26 39 44
48 40 40 42 43 42 41 31 26 20 18 17 18 20 15 16 12 11 10 12 24 31 32 15 7 8 17 17 16 18 17 21 21 22 17 15 20 24 24 27 28 28 29 31 45
43 35 39 40 46 40 37 26 19 22 22 22 20 21 17 14 13 11 14 31 24 25 32 32 16 11 15 17 17 17 18 19 19 20 17 16 17 14 23 25 24 28 31 41 47
43 33 38 39 43 39 33 20 17 18 22 25 21 20 19 23 20 18 20 22 29 26 30 29 33 26 20 20 15 14 15 19 22 20 17 16 16 22 25 26 27 25 32 45 47
37 27 34 38 40 37 31 22 26 18 20 20 29 24 25 24 22 17 24 21 29 32 32 30 34 32 25 21 16 16 20 23 19 23 16 15 16 25 29 30 33 34 40 45 47
33 29 36 36 36 32 27 22 20 23 18 18 23 22 24 25 27 26 29 36 34 35 35 38 34 31 30 24 16 16 18 23 26 27 22 13 15 22 28 33 34 34 41 44 46
33 30 28 34 31 32 28 27 23 23 23 21 22 23 29 23 25 32 29 32 35 37 40 40 35 32 26 23 16 17 15 19 26 22 21 18 17 27 30 31 36 40 44 43 45
33 28 31 30 33 30 29 28 26 27 30 28 24 21 24 21 18 21 28 25 31 36 39 39 30 27 34 33 16 15 14 16 22 23 19 19 17 18 29 31 34 41 43 43 43
34 32 33 31 30 29 29 30 25 27 31 26 28 25 24 24 23 25 23 26 31 31 38 40 32 27 31 33 27 14 14 14 15 20 19 17 18 19 24 29 40 40 41 42 43
38 38 39 31 29 29 30 27 29 29 29 29 28 29 28 26 28 28 28 28 27 28 30 36 35 27 30 32 24 22 16 16 16 19 21 17 26 30 33 37 40 41 42 41 42

GFSSW_sfc_dewp_012.txt.gz
Dewpoint
50 51 50 50 51 52 51 51 52 52 53 53 53 53 53 53 53 41 36 37 43 61 59 37 47 46 46 48 44 30 26 28 29 28 28 28 27 27 29 30 29 30 31 33 34
49 50 50 51 51 51 52 52 51 52 52 52 53 53 54 54 44 36 42 60 62 63 30 30 41 41 40 36 40 34 28 27 30 29 29 29 29 28 30 31 32 34 37 33 33
49 49 51 51 52 52 52 52 51 52 52 52 52 52 54 51 37 23 56 61 61 55 23 24 27 37 37 34 32 34 31 30 30 31 31 30 30 32 31 32 33 34 34 34 34
50 50 51 51 52 52 52 52 52 52 52 52 52 52 53 45 17 34 57 54 55 34 27 24 23 20 30 34 33 30 32 32 30 30 31 31 32 31 31 32 32 32 36 35 35
50 50 51 51 52 52 52 52 52 52 52 51 51 51 45 25 26 28 59 54 32 33 35 33 28 22 21 29 33 30 30 30 30 31 31 31 30 30 30 32 33 32 36 36 37
51 51 51 51 51 52 53 52 53 53 52 51 52 51 43 30 25 23 25 25 28 26 28 33 33 26 23 23 28 32 29 28 28 28 28 27 27 28 29 33 32 34 36 35 37
52 52 51 51 51 52 53 52 52 52 51 52 52 47 39 31 26 26 24 23 23 25 25 27 29 29 26 23 24 26 28 29 29 28 28 29 29 29 30 31 32 34 34 35 37
52 52 52 52 52 52 52 52 52 52 51 52 52 45 35 27 25 22 21 20 19 17 20 25 27 26 26 26 24 23 25 25 27 28 28 28 27 30 31 30 32 33 34 35 36
52 52 51 50 51 51 52 52 52 52 51 51 48 42 31 34 26 26 24 21 16 16 19 22 25 28 27 23 23 24 24 24 26 28 28 28 28 30 32 32 33 35 36 34 36
52 52 52 51 51 52 52 51 50 50 46 44 43 36 34 27 21 22 28 27 23 22 22 20 23 23 24 21 19 20 21 23 26 26 26 25 27 29 31 31 33 34 35 34 35
51 52 52 52 52 51 48 43 28 32 40 38 35 33 28 20 17 15 17 16 18 21 22 21 21 21 22 23 20 19 19 19 22 23 24 27 28 28 30 31 31 33 35 36 37
51 51 51 52 52 51 45 36 30 30 27 27 25 24 22 18 15 15 16 14 15 15 23 20 21 23 21 20 19 18 18 19 21 20 24 26 26 30 32 33 34 35 36 37 37
51 51 51 51 51 45 35 31 30 30 27 25 24 21 19 16 15 16 16 15 12 11 15 20 17 20 20 19 18 18 18 20 19 21 23 26 26 30 30 32 33 33 35 35 36
51 51 51 50 44 35 31 30 29 32 24 16 12 17 17 16 17 19 20 19 15 10 8 10 16 15 17 18 19 18 16 16 18 21 21 25 24 31 30 30 31 32 34 35 37
51 51 51 49 43 34 33 35 32 33 17 13 18 23 20 20 21 19 23 21 18 16 13 8 7 13 15 16 19 19 17 17 17 19 23 21 22 25 27 26 28 31 32 33 35
50 51 50 42 44 37 35 36 36 29 18 24 28 25 26 24 23 15 23 24 22 20 16 12 9 5 15 16 16 18 18 18 19 19 21 24 22 23 25 26 28 29 27 32 33
50 50 48 43 36 36 40 38 31 22 28 17 14 12 12 11 12 11 10 15 20 23 20 15 13 10 7 13 17 18 23 18 17 18 20 22 21 26 29 27 25 26 26 31 42
49 48 47 39 38 38 39 34 23 28 21 14 11 11 10 10 7 5 7 5 11 18 24 20 16 8 11 11 16 18 23 16 16 15 16 20 21 23 29 29 28 26 31 37 45
48 43 41 39 41 39 37 30 26 19 12 13 13 21 21 26 21 18 13 7 14 24 24 24 21 19 8 13 16 18 15 19 21 20 17 19 23 28 29 24 28 27 31 45 47
43 41 36 40 43 39 36 28 23 13 10 12 16 28 23 22 22 23 19 22 19 22 30 24 23 23 24 9 16 19 17 19 18 19 22 18 21 20 25 25 24 28 34 47 50
44 35 38 36 41 41 34 23 19 16 16 15 17 21 24 23 25 22 26 23 29 20 24 24 24 23 28 22 12 17 17 17 24 21 20 21 17 24 23 23 27 28 40 48 50
40 29 35 36 38 41 32 23 27 27 20 17 22 23 24 24 24 20 28 35 37 33 28 30 34 29 25 23 10 19 18 21 19 23 21 23 21 33 32 28 32 38 45 47 50
38 30 37 35 35 33 29 23 23 22 26 21 20 20 22 21 25 31 26 31 31 32 32 35 32 28 26 27 28 19 18 22 28 30 27 19 20 29 26 30 33 41 45 47 50
38 29 27 32 32 32 27 27 27 25 25 24 24 23 26 26 26 30 27 26 32 30 35 38 34 28 27 27 32 28 20 19 25 23 25 22 20 22 31 34 36 45 46 46 48
37 28 33 27 30 29 29 29 25 22 24 25 28 22 22 22 19 23 26 26 27 33 34 38 32 30 28 30 34 35 23 16 20 25 24 24 18 27 35 37 39 46 45 45 46
34 32 33 33 30 30 29 26 24 23 26 26 27 27 24 25 25 27 24 26 28 30 32 39 33 34 29 32 34 32 30 15 17 21 23 24 20 29 38 42 40 43 43 43 46
39 40 37 35 30 28 29 28 30 30 27 26 28 34 27 26 29 30 28 28 28 26 26 30 37 32 27 28 31 31 30 23 18 24 25 22 27 39 39 40 43 45 43 43 45

GFSSW_sfc_dewp_015.txt.gz
Dewpoint
50 50 51 50 51 52 52 52 52 52 52 53 53 53 53 54 54 44 41 41 47 55 61 44 44 43 48 48 48 37 26 24 25 28 29 31 30 30 31 31 33 36 37 39 39
50 50 50 51 51 52 52 52 52 52 52 52 53 53 53 54 48 41 44 56 58 63 42 31 28 39 46 44 46 46 33 27 26 26 28 30 30 30 31 33 34 35 37 38 39
50 50 51 51 52 51 52 52 52 52 52 52 52 52 53 52 43 31 61 58 56 59 32 30 28 28 42 39 38 40 40 36 31 28 29 30 31 32 32 32 34 33 37 37 39
50 51 51 51 51 52 52 52 52 52 52 52 52 52 53 48 23 34 58 60 58 44 29 25 22 21 20 32 36 33 34 36 35 32 31 30 31 30 32 32 33 33 34 37 38
52 51 51 51 51 51 52 52 52 52 51 51 52 51 47 37 34 28 60 57 43 33 27 26 24 23 21 20 26 34 34 32 32 33 32 32 31 30 30 33 33 32 32 35 37
51 51 51 51 51 51 52 53 53 53 52 51 51 51 45 38 33 26 24 34 34 30 32 31 30 29 28 22 21 22 31 34 32 30 30 30 29 29 29 31 30 30 30 32 37
52 52 51 51 51 51 52 52 52 52 51 51 52 48 42 39 31 28 28 25 23 23 25 27 29 32 32 25 24 23 22 23 26 29 29 29 27 27 30 32 31 32 31 33 34
52 52 51 51 51 51 52 52 52 52 51 51 52 47 39 36 35 33 31 27 23 21 20 20 20 22 26 27 26 24 23 21 22 23 26 28 27 29 29 28 30 30 31 31 36
52 52 51 51 51 51 52 52 53 52 52 51 48 45 34 39 33 31 28 24 20 18 17 16 16 20 25 26 25 24 21 21 21 23 23 26 26 29 30 29 30 31 31 31 32
52 52 52 52 51 52 52 51 50 51 47 44 44 40 38 31 28 25 28 27 25 20 19 19 18 20 21 22 22 21 21 21 22 25 26 24 24 26 28 28 29 29 31 33 34
50 51 51 51 52 51 49 43 32 36 41 31 32 37 35 35 35 21 24 20 18 21 20 21 16 16 20 21 24 21 21 20 21 24 24 24 25 26 27 27 27 28 33 37 37
50 51 51 52 52 51 48 41 29 28 25 26 26 25 26 28 27 24 21 15 17 15 16 19 19 17 21 22 23 23 20 18 20 22 21 22 23 25 27 28 32 34 35 36 37
51 51 51 52 51 48 38 31 33 30 27 26 25 25 24 24 22 20 18 16 14 12 12 12 19 20 18 20 20 21 20 19 18 21 20 19 20 22 24 28 31 31 34 34 32
50 50 51 51 45 41 34 34 33 34 25 23 25 20 21 21 20 20 18 16 15 12 11 8 9 14 18 17 19 18 21 20 20 20 17 20 17 21 25 27 27 30 31 32 32
50 50 50 50 44 40 36 38 36 34 18 31 30 34 27 21 21 24 17 17 18 16 14 10 9 7 10 16 17 18 22 20 20 18 17 18 21 20 27 26 28 28 30 30 31
49 50 50 46 46 42 38 39 38 30 21 30 25 15 15 16 20 22 20 23 21 17 18 17 16 11 8 7 13 16 19 19 19 18 16 17 19 17 21 26 27 28 28 28 39
49 49 48 44 40 36 37 37 31 22 25 16 11 13 15 23 19 16 16 23 22 21 21 25 24 15 12 10 10 12 14 15 17 17 16 15 17 20 26 28 27 28 29 43 53
49 48 47 43 41 38 38 33 22 22 20 10 9 19 16 28 29 27 22 12 13 18 16 16 18 21 21 12 10 7 15 15 15 16 15 16 17 20 22 25 29 28 26 50 53
48 44 44 43 41 41 35 29 26 25 23 18 13 19 18 18 31 28 26 22 19 21 24 26 21 25 23 21 11 8 8 16 15 19 16 17 18 19 19 24 30 27 35 49 52
45 43 41 41 43 41 34 28 26 29 27 26 20 19 17 16 20 29 27 30 33 34 33 26 20 19 19 20 22 17 14 16 14 14 15 18 17 22 26 24 28 30 45 49 52
45 41 41 40 44 41 29 28 23 33 30 28 21 20 21 23 23 22 24 28 32 32 33 31 25 22 20 20 20 21 10 14 17 17 16 16 21 25 30 29 26 30 46 48 51
42 37 39 39 34 37 31 26 28 27 28 25 24 28 24 22 21 20 26 30 31 34 29 31 34 29 23 23 25 25 24 14 17 16 21 19 21 26 27 26 37 42 47 49 52
40 39 41 39 31 32 31 24 26 28 27 25 23 27 32 29 26 29 30 29 33 32 32 33 30 26 21 22 26 27 26 14 21 23 17 17 17 23 30 32 44 46 48 50 51
40 35 34 37 34 31 27 28 26 27 20 22 23 33 31 28 26 26 30 28 31 30 35 37 29 27 25 26 31 32 34 30 17 20 19 21 18 22 32 34 44 46 48 49 50
42 33 35 30 32 32 33 31 27 27 28 28 26 26 28 27 26 25 30 30 30 35 38 37 32 29 30 30 28 31 30 31 32 24 17 21 22 23 37 41 44 46 47 48 50
39 37 37 36 33 32 34 33 32 29 30 29 34 34 33 31 30 29 27 27 29 30 36 38 32 33 32 30 29 28 28 29 30 32 20 19 20 30 42 43 44 45 46 47 49
41 43 41 37 33 31 32 32 32 32 31 31 33 35 34 35 33 33 31 30 31 29 25 32 31 32 29 29 30 25 26 27 30 31 24 17 28 40 41 44 46 44 45 46 48

GFSSW_sfc_dewp_021.txt.gz
Dewpoint
50 50 50 51 51 51 52 52 52 52 52 52 52 53 53 53 53 46 37 33 42 53 59 39 52 49 44 40 49 34 28 25 25 26 27 29 34 35 35 33 33 35 37 38 40
50 50 51 51 51 51 52 52 52 52 52 52 52 52 52 53 48 42 40 49 55 58 43 30 24 44 38 41 47 46 31 26 25 24 26 26 31 35 34 35 33 33 38 39 39
50 50 50 51 51 51 51 51 52 52 51 51 51 51 51 51 36 25 58 56 56 55 51 39 31 28 32 45 46 46 42 38 33 27 32 31 29 28 30 30 31 31 35 35 37
51 50 51 51 51 51 51 51 51 51 51 51 51 51 51 47 -15 17 55 52 51 43 47 38 32 28 26 25 38 42 44 44 44 44 44 42 37 35 32 30 32 33 35 37 35
51 51 51 51 51 51 51 52 52 52 52 51 51 49 44 40 38 22 45 41 29 44 44 40 29 26 21 21 23 30 37 41 41 39 38 41 40 39 36 35 35 35 35 36 37
51 51 51 51 51 51 52 52 52 52 52 51 50 49 41 35 36 36 35 33 27 24 24 38 28 25 22 21 22 25 25 26 28 29 35 34 34 34 34 35 34 34 35 35 34
51 51 51 51 51 51 52 52 52 52 52 52 51 46 40 37 40 38 36 35 33 29 24 22 32 26 25 25 26 24 21 22 23 24 23 25 25 27 32 35 33 33 33 33 35
50 51 50 50 50 51 52 52 53 53 53 52 50 45 39 41 41 40 39 38 37 35 29 26 23 19 22 25 25 26 26 23 23 23 24 23 26 30 32 33 33 33 33 33 33
49 51 50 50 50 51 52 53 52 53 52 52 47 43 39 44 41 40 40 35 29 29 27 22 19 17 22 21 22 24 23 23 24 22 23 23 25 28 29 28 28 30 31 32 32
49 50 50 50 51 52 52 52 51 50 49 49 46 40 36 24 27 29 30 35 29 25 22 19 16 15 16 21 20 22 23 25 24 24 23 22 23 24 28 28 27 27 27 28 29
49 49 50 51 51 51 50 43 34 30 32 31 29 29 29 28 29 28 29 27 28 26 19 17 14 14 15 17 19 20 22 24 24 24 24 23 23 24 26 26 25 26 27 29 33
49 49 49 51 51 51 46 38 35 34 30 31 30 30 33 35 29 28 29 25 21 17 20 19 14 15 17 17 18 18 19 20 23 24 23 22 23 24 25 26 27 28 29 30 30
49 49 50 50 51 44 40 38 38 35 29 29 30 29 27 27 26 27 26 26 24 20 17 16 17 17 16 17 17 17 20 20 20 22 21 21 19 19 19 23 23 24 28 30 30
49 50 50 49 42 43 39 38 39 35 24 24 24 26 26 26 26 29 28 25 21 17 16 13 13 12 11 13 16 13 17 20 24 22 19 21 13 14 14 16 21 21 25 29 29
49 49 50 49 43 42 38 41 38 29 13 22 25 26 24 24 24 29 33 25 21 20 16 12 13 11 10 10 11 14 20 20 18 17 22 22 20 17 19 17 17 18 20 26 30
50 49 49 44 43 44 44 40 35 22 11 23 25 25 22 20 24 28 29 33 28 21 18 15 16 14 13 13 12 13 17 19 18 21 18 18 19 15 16 18 20 24 26 28 28
50 49 48 46 37 41 40 34 21 17 24 23 25 25 24 18 21 25 25 27 27 27 22 20 17 15 16 13 17 16 11 12 14 17 15 18 18 16 21 24 23 23 24 25 27
49 49 46 46 44 42 34 26 18 24 27 27 27 25 19 19 22 26 26 28 31 31 28 27 20 21 24 22 16 13 11 13 11 16 14 16 16 18 22 22 20 20 20 26 42
48 42 42 43 44 39 30 22 21 29 29 26 27 22 20 21 24 24 23 29 31 32 26 27 19 24 22 21 21 19 9 10 7 13 12 18 20 22 21 18 20 20 26 40 54
41 41 41 42 41 35 29 26 27 31 26 27 26 27 22 23 24 25 24 30 29 31 33 27 21 25 22 22 20 18 20 9 11 10 12 16 18 17 21 23 24 24 23 44 55
40 37 39 42 39 35 24 27 28 29 29 29 26 23 23 25 25 24 26 27 31 29 31 30 26 23 24 21 15 17 20 18 11 12 14 14 18 23 20 21 21 24 27 52 56
37 32 40 37 30 30 25 29 33 30 32 31 30 27 26 28 26 25 26 29 32 33 29 32 29 27 25 22 23 22 20 22 14 11 17 18 16 19 24 23 32 34 44 55 58
37 36 41 36 25 24 29 31 33 31 32 31 31 29 31 28 28 28 28 30 31 31 31 32 26 22 18 26 28 25 25 26 29 25 20 15 15 20 22 23 40 50 52 56 58
39 32 32 34 33 29 31 32 32 33 34 34 32 31 32 30 30 29 28 29 33 33 36 36 28 24 19 22 26 26 27 29 31 25 20 18 16 17 19 29 32 51 53 57 58
37 31 33 29 31 33 33 32 32 31 36 36 32 31 33 31 29 30 30 31 31 35 37 35 27 30 29 28 28 28 28 28 28 29 28 24 16 17 29 29 33 51 55 56 56
34 33 38 33 34 32 32 33 33 33 34 34 34 34 33 32 31 31 31 32 31 32 36 37 28 31 27 29 30 28 28 28 29 29 28 27 26 27 30 40 49 51 54 55 55
37 37 37 33 32 33 33 33 33 35 35 35 35 34 33 33 34 34 34 34 35 33 34 34 32 27 23 23 28 28 28 29 29 27 27 26 27 31 32 41 51 52 54 54 55

GFSSW_sfc_dewp_024.txt.gz
Dewpoint
49 49 50 50 51 51 51 51 51 51 52 52 52 52 52 52 52 45 34 29 44 53 56 40 51 49 45 46 46 34 29 26 25 26 24 29 32 33 35 35 35 36 34 37 42
50 49 49 51 51 51 51 51 51 51 51 51 51 51 51 52 47 42 38 44 49 53 44 34 22 43 35 37 47 35 28 26 25 26 25 26 29 29 30 32 35 36 36 38 41
50 50 51 51 51 51 51 51 51 51 51 51 51 51 51 50 25 7 53 55 49 48 46 42 40 34 39 44 42 46 38 27 27 25 26 29 31 34 33 31 32 34 35 36 37
50 50 51 51 51 51 51 51 52 52 52 51 51 50 49 45 -14 4 50 48 46 42 43 42 32 30 27 35 44 43 45 41 38 40 43 42 44 42 38 36 36 33 35 36 35
49 50 50 50 50 51 51 51 52 52 52 51 50 51 44 37 30 33 45 41 31 26 45 42 31 29 25 25 28 38 41 44 44 43 43 42 41 42 41 41 39 37 37 37 37
49 49 50 50 50 50 51 52 52 52 52 52 51 51 41 32 33 37 37 36 28 27 24 39 37 30 24 21 24 25 26 29 34 38 35 36 37 37 38 38 37 37 37 37 37
48 49 50 50 50 50 51 52 53 53 53 52 51 48 40 36 39 39 40 39 37 36 27 23 32 35 25 24 24 25 22 23 24 25 28 27 28 30 32 33 32 34 35 35 36
48 49 49 50 50 51 51 53 53 53 53 51 51 44 38 41 42 42 40 38 38 38 35 27 22 22 26 24 24 26 25 20 22 23 24 27 26 29 33 33 33 33 33 35 36
49 49 49 50 50 51 52 52 53 52 52 51 45 42 38 43 41 42 39 34 32 33 34 27 23 19 21 20 22 24 19 23 23 24 24 24 25 31 31 30 30 30 31 32 31
49 50 50 50 51 51 52 52 50 49 50 48 46 38 32 25 28 31 35 32 33 29 26 24 18 16 17 20 18 22 23 24 24 24 23 22 23 26 26 26 28 29 30 31 31
48 49 50 50 50 51 49 38 35 33 34 31 29 29 29 30 32 32 31 29 27 28 22 19 15 13 17 20 20 19 21 22 24 26 24 22 22 23 26 26 25 26 26 27 29
49 49 49 50 50 51 43 36 35 35 33 33 32 31 31 30 32 28 31 24 24 22 20 17 14 16 18 18 17 17 17 18 22 23 23 24 23 24 24 24 24 26 28 31 33
49 48 49 49 50 44 40 38 38 35 30 29 29 31 31 27 26 26 26 26 24 22 20 16 16 17 16 16 16 17 18 19 19 22 21 22 21 22 23 24 23 23 25 26 29
50 48 48 49 41 42 39 40 41 36 22 21 24 25 26 25 25 30 32 29 23 19 17 15 15 13 13 15 15 13 18 20 23 23 19 22 17 19 20 19 19 19 22 24 29
49 49 48 48 42 40 37 42 39 28 5 24 25 26 28 23 23 28 32 28 24 23 18 13 13 11 11 11 13 15 18 17 17 15 15 17 19 15 18 18 19 19 17 19 24
48 48 48 45 44 43 43 39 33 20 9 25 26 26 26 25 21 28 29 34 33 25 21 19 18 15 13 13 12 14 18 20 20 19 16 13 17 13 12 15 17 21 22 22 22
49 49 47 45 35 42 39 30 19 13 24 23 25 26 26 23 21 26 24 28 32 28 26 21 18 18 17 15 15 13 12 13 15 15 11 16 16 10 20 21 22 23 24 27 29
49 46 47 46 44 42 31 23 17 22 26 27 26 26 20 21 22 25 22 29 31 31 29 28 18 22 25 16 15 14 12 13 11 12 12 15 16 18 21 21 23 24 23 24 25
47 42 41 42 44 37 28 21 20 25 29 26 26 25 23 22 24 24 22 26 29 31 28 27 26 29 28 28 21 16 13 14 8 11 10 16 19 21 19 17 19 20 23 24 26
40 40 40 43 40 33 29 26 26 30 28 28 26 26 22 21 23 24 23 28 28 32 32 26 20 25 24 24 24 18 17 9 10 6 10 14 16 17 19 21 22 25 27 27 46
38 35 39 41 38 33 24 26 28 30 31 29 27 27 24 24 25 25 24 27 31 29 31 29 27 22 24 21 16 19 18 17 11 14 13 14 16 23 20 24 26 35 47 35 53
36 31 39 36 29 27 24 28 33 31 33 32 32 29 26 27 26 25 25 27 32 31 28 32 29 26 24 24 26 24 19 19 16 12 12 15 12 18 23 26 28 29 52 53 57
37 37 40 35 23 23 29 31 32 32 32 34 33 31 30 28 28 29 29 29 31 32 30 30 26 22 18 26 28 25 24 22 26 25 21 12 11 19 19 26 25 29 52 56 56
39 30 33 33 32 28 31 31 32 33 34 35 33 33 33 32 31 31 29 30 32 33 36 35 27 23 17 19 26 25 26 28 29 22 16 16 19 19 19 28 25 34 52 55 57
35 30 33 27 28 30 33 33 32 31 35 35 34 31 34 32 30 30 31 31 31 32 34 34 28 28 28 29 28 27 26 27 26 27 27 25 26 21 26 27 27 47 55 55 56
28 30 33 30 31 30 31 31 32 32 33 30 32 31 34 33 33 31 33 34 33 34 35 34 29 29 26 26 29 28 28 28 28 28 27 29 28 29 29 31 36 49 56 56 56
37 35 34 29 28 27 28 31 31 32 36 35 35 35 33 33 35 35 35 34 34 36 33 34 29 26 22 26 27 23 26 25 25 28 27 27 27 28 32 34 40 50 55 56 57

GFSSW_sfc_dewp_027.txt.gz
Dewpoint
50 50 50 51 51 51 51 52 52 52 52 52 52 52 52 52 52 43 28 26 43 54 54 32 25 43 48 46 42 35 28 23 19 22 19 28 28 33 33 34 35 35 36 38 45
49 49 50 50 51 51 51 51 52 52 52 52 52 51 51 51 44 38 39 48 51 53 42 29 16 37 40 40 44 35 31 26 24 24 24 26 27 28 29 32 32 36 37 36 39
49 50 50 50 50 50 51 51 51 51 52 52 51 51 51 49 31 14 56 49 49 48 38 37 39 28 27 33 40 39 31 30 27 23 25 22 22 25 28 31 32 33 37 37 36
49 50 50 50 50 50 51 51 51 52 52 51 51 51 51 42 -8 31 47 48 45 30 38 44 37 31 26 26 34 35 37 34 31 27 25 23 23 28 32 32 37 41 42 41 39
49 49 50 50 50 51 51 52 52 52 52 51 51 51 43 34 24 27 45 43 35 33 26 41 31 25 24 26 28 36 33 39 39 39 37 41 40 37 39 41 42 41 41 41 40
49 49 50 50 50 51 51 52 53 53 52 52 51 51 41 25 28 35 38 40 36 34 31 28 37 26 26 24 25 26 30 34 37 41 42 40 38 39 39 40 40 40 40 39 40
49 49 50 50 50 51 52 53 53 53 54 51 52 47 40 30 36 37 41 39 38 37 31 30 24 37 27 20 25 24 24 25 26 33 37 39 36 36 37 37 36 36 37 38 39
49 49 49 50 50 51 52 53 53 53 53 52 51 44 36 39 41 42 41 37 38 38 35 34 24 21 28 30 23 23 24 20 23 24 25 28 26 29 30 31 33 35 35 36 37
48 50 49 50 50 51 52 52 53 52 53 52 45 42 29 40 34 31 41 33 31 33 35 30 26 19 22 23 22 23 17 20 21 23 24 26 26 27 30 33 34 35 37 36 36
49 50 49 50 50 51 52 52 50 52 50 47 46 37 31 25 28 31 32 35 31 28 25 24 21 20 20 21 16 17 20 19 20 22 24 23 25 26 28 29 30 31 31 32 33
48 50 49 49 50 51 48 37 35 33 36 32 30 30 28 29 31 30 30 29 28 26 21 22 14 13 18 22 22 19 21 21 22 25 24 24 25 25 27 29 29 29 31 33 34
48 49 49 49 50 50 43 36 36 37 34 34 34 32 32 31 28 26 28 25 24 23 23 20 16 16 18 19 20 20 20 19 21 22 24 26 26 27 28 28 29 31 32 32 33
48 49 48 49 50 44 41 37 39 37 33 30 28 27 27 27 25 23 29 25 22 21 22 20 17 17 17 17 18 20 20 20 19 21 23 23 23 25 26 27 28 29 31 32 35
47 48 48 48 42 43 38 40 42 38 26 18 23 25 26 28 24 23 31 30 24 20 19 17 18 15 14 16 16 18 18 19 21 21 19 23 17 22 23 24 25 26 29 31 31
48 48 48 47 45 39 39 43 38 32 3 19 24 27 27 24 23 22 28 30 26 25 25 22 15 12 13 15 14 16 18 17 17 17 18 18 17 17 19 19 21 26 27 29 30
49 49 48 46 45 44 43 40 34 21 8 21 24 25 24 24 20 23 23 31 32 30 28 25 24 17 13 13 13 13 15 17 18 17 13 16 15 13 13 16 18 21 23 27 29
49 49 46 43 37 43 40 33 22 11 22 20 23 25 24 23 20 21 22 26 31 31 26 24 23 21 16 15 16 16 14 10 10 12 12 13 14 15 20 19 20 23 23 26 30
49 45 48 45 46 45 33 23 15 20 23 25 26 25 22 21 20 22 22 21 32 28 32 26 23 20 19 16 13 16 15 7 3 5 7 13 13 12 22 24 24 26 28 31 34
47 44 43 43 44 38 29 25 23 23 26 26 26 23 22 21 23 23 22 22 25 28 25 23 25 26 25 21 22 18 14 13 13 14 9 9 12 15 18 19 21 28 35 37 47
43 42 40 43 43 37 31 26 26 27 28 28 25 25 22 23 23 24 23 23 23 29 31 25 21 25 28 27 27 25 19 14 13 7 4 9 11 11 17 23 27 28 35 43 49
41 37 40 41 40 35 32 27 28 29 30 29 27 26 26 26 23 24 23 22 27 25 30 28 26 19 22 24 23 28 21 18 16 12 9 10 13 25 25 28 26 25 32 50 48
41 33 40 38 32 35 31 30 33 31 32 32 32 31 29 27 26 25 24 25 28 30 25 31 31 23 20 22 26 24 21 21 15 13 11 11 11 23 28 26 28 25 27 51 55
38 37 41 37 33 31 30 30 32 31 31 32 32 32 31 30 30 30 28 28 29 29 27 31 26 19 12 25 26 20 21 23 24 25 18 11 11 21 23 23 28 27 30 52 56
37 32 32 35 34 30 30 29 28 32 32 34 33 33 33 30 32 32 30 30 30 30 35 35 29 22 17 17 24 23 23 23 26 21 17 17 17 19 22 24 28 28 36 52 57
36 32 36 26 26 26 31 32 30 30 34 32 33 34 35 32 30 29 30 31 32 33 34 34 29 26 26 25 26 25 23 23 23 23 23 19 19 20 25 30 30 33 33 47 56
30 31 35 30 30 31 31 30 30 30 30 30 32 31 35 33 32 30 30 31 32 35 35 37 31 28 25 25 24 20 22 24 24 23 23 24 25 27 30 29 29 29 32 46 55
39 37 36 31 31 30 29 28 26 28 30 34 32 32 33 33 33 34 35 35 36 36 36 36 34 29 22 21 21 21 21 23 22 24 24 21 23 26 28 28 31 34 39 41 56

GFSSW_sfc_dewp_030.txt.gz
Dewpoint
49 50 50 50 51 51 51 51 51 52 52 52 52 52 52 52 52 34 23 32 41 55 54 29 19 41 41 43 39 37 30 26 22 16 15 17 17 21 29 32 34 35 36 39 48
50 50 51 51 51 51 51 51 51 52 52 52 52 52 52 52 41 33 44 48 51 54 32 24 14 27 37 37 40 35 31 28 27 25 19 15 17 21 27 32 34 35 37 36 40
50 50 50 51 51 51 51 52 52 52 52 52 52 52 52 50 29 33 55 50 50 45 33 28 27 14 34 35 34 36 32 30 30 29 24 22 21 19 24 28 33 34 37 38 39
50 50 50 51 51 51 52 52 53 53 53 52 52 52 52 40 5 31 46 48 49 35 29 33 31 22 19 27 32 32 34 34 31 30 28 24 25 24 22 23 29 32 36 39 40
49 50 50 50 51 51 52 52 53 53 53 53 53 52 44 25 17 21 44 44 34 31 22 20 29 25 18 20 23 29 30 33 33 33 31 28 27 27 26 29 31 33 38 40 38
49 50 50 50 50 51 52 53 53 53 53 54 53 51 37 14 25 30 33 34 33 29 25 22 25 27 22 18 21 24 25 28 31 33 36 35 34 33 34 35 37 39 40 39 37
49 49 50 50 50 51 52 53 53 53 54 54 52 46 36 23 29 34 34 34 34 33 27 25 22 21 28 23 20 23 23 25 26 30 33 37 35 35 34 35 36 38 39 38 38
48 49 49 50 50 51 52 53 53 53 53 53 52 43 29 30 34 33 30 29 31 34 33 29 28 19 21 28 25 20 21 19 22 25 26 34 33 35 35 34 35 35 34 34 36
49 49 49 50 50 50 52 52 52 52 53 52 46 39 20 37 24 27 29 31 30 28 32 29 27 19 14 19 20 20 15 16 17 20 23 26 29 31 31 31 32 32 32 32 34
49 48 49 49 49 50 51 52 53 53 48 44 41 36 23 20 24 28 30 30 30 28 28 26 22 16 9 12 11 12 14 15 16 17 21 22 25 26 28 29 30 31 32 34 35
49 49 49 49 49 51 48 36 33 32 29 29 25 27 22 25 25 25 27 28 27 27 23 21 16 10 10 10 12 15 14 14 18 18 20 23 23 24 26 27 28 31 32 33 34
48 48 49 49 50 50 45 31 34 36 31 28 29 29 29 28 25 21 27 25 25 21 21 21 18 16 12 10 10 16 18 19 20 21 22 23 23 25 26 26 28 30 31 32 33
49 48 48 49 50 46 37 36 38 39 31 24 24 23 23 23 21 21 23 25 25 20 19 19 17 16 15 14 14 16 17 19 18 21 24 25 24 26 26 28 29 30 32 32 34
49 48 49 48 45 40 36 39 40 41 25 16 18 23 22 22 21 19 25 25 23 21 21 20 18 17 17 14 13 12 14 17 19 20 17 23 17 22 23 24 26 28 30 30 32
50 49 49 48 43 36 39 41 40 38 12 15 19 23 22 21 20 16 24 22 23 23 23 20 20 18 16 12 13 13 13 17 19 19 20 19 17 20 23 22 24 27 27 29 30
50 49 48 45 45 41 42 42 38 24 4 14 18 19 19 17 17 16 19 20 25 28 27 25 25 22 17 13 12 16 13 14 19 19 16 19 17 16 16 19 21 22 23 24 25
50 49 47 41 38 42 42 35 25 14 17 15 17 21 20 16 17 17 18 17 22 25 20 22 22 22 22 18 16 15 15 10 10 14 16 17 16 18 21 18 17 21 24 24 28
49 47 47 42 43 44 39 26 20 17 15 20 21 21 19 19 19 21 18 16 20 27 25 23 18 25 24 20 17 16 14 8 4 5 7 14 14 14 19 20 21 25 27 31 35
48 46 44 45 45 42 32 24 24 20 22 23 23 19 17 18 20 20 18 17 20 23 25 23 21 20 25 23 18 17 17 19 9 10 4 6 15 17 19 19 22 26 32 37 45
42 42 40 43 46 40 30 25 23 24 26 26 24 22 20 20 21 20 18 18 18 21 27 24 23 20 23 25 24 25 27 28 10 7 6 6 10 11 17 17 20 27 30 40 53
42 35 39 41 43 32 33 22 25 27 28 27 26 25 24 23 21 21 20 21 22 22 25 24 25 21 22 24 18 30 29 30 20 10 6 4 7 17 24 27 28 28 31 47 53
39 28 40 39 28 35 25 22 32 28 30 29 30 29 27 26 25 22 22 25 24 26 24 25 27 21 18 19 24 26 30 30 29 19 12 15 17 26 28 26 29 29 31 47 55
36 32 39 37 34 26 19 23 27 29 28 28 29 30 30 29 29 26 26 26 27 27 26 30 26 20 13 22 24 20 20 26 27 29 25 10 15 27 23 24 27 29 29 36 56
34 30 30 31 32 25 24 24 26 28 29 31 31 30 30 29 29 30 28 27 28 29 35 35 30 24 18 16 19 18 19 19 21 23 19 17 17 22 23 23 26 30 29 35 56
32 30 34 30 33 31 30 27 26 27 30 31 30 30 31 31 28 28 27 27 31 34 35 35 32 26 23 21 19 20 17 17 20 19 18 21 16 18 22 24 28 30 28 29 54
36 34 34 32 33 32 31 25 24 25 26 26 28 30 30 31 30 30 29 32 35 36 35 37 32 29 25 23 19 18 19 17 16 18 19 18 17 21 24 24 25 27 26 29 35
39 37 36 32 31 30 31 29 29 30 28 29 31 31 32 31 31 32 33 34 37 36 36 35 34 29 25 21 19 17 17 16 16 18 20 18 20 21 21 23 26 29 29 29 33

GFSSW_sfc_dewp_033.txt.gz
Dewpoint
50 51 51 51 51 52 52 52 52 53 53 53 53 53 53 53 53 40 31 42 41 56 53 26 24 22 37 37 39 37 32 28 24 21 19 16 15 16 22 26 34 37 38 40 44
50 50 51 51 51 51 52 52 53 53 53 54 54 54 53 53 46 28 49 50 51 53 29 21 19 20 26 33 37 37 33 30 27 24 22 20 16 17 20 25 30 35 37 39 45
50 50 51 51 51 51 52 52 53 53 54 54 54 54 53 51 35 37 56 50 51 50 27 27 23 22 17 30 31 36 34 32 29 28 26 25 21 16 16 25 31 35 37 37 38
49 50 50 51 51 51 52 52 53 54 54 54 54 54 53 46 15 30 48 49 51 40 23 25 24 22 17 16 29 30 33 34 33 31 28 28 27 24 19 19 27 33 36 37 39
50 49 50 50 51 51 52 52 53 54 54 54 54 54 49 33 15 24 43 47 32 28 21 16 20 22 20 17 18 27 29 29 31 32 32 31 29 27 26 23 22 24 33 35 37
49 50 50 50 51 51 51 53 53 53 54 54 55 53 45 25 24 27 30 31 28 26 25 20 16 21 21 20 19 19 18 21 24 28 31 31 31 30 29 29 28 26 27 31 35
49 49 49 50 50 51 51 53 53 53 54 55 55 46 35 21 26 27 28 26 29 29 26 24 22 20 23 24 23 20 18 19 20 21 25 32 32 33 34 33 31 31 31 35 39
50 50 50 50 51 51 51 52 53 53 54 54 52 46 31 23 25 23 23 24 26 28 30 28 26 23 18 16 16 21 19 16 19 21 22 25 28 31 33 34 34 34 34 35 37
49 50 50 50 50 50 51 52 52 53 53 53 49 40 25 34 20 19 24 25 26 26 26 28 27 22 18 10 10 13 16 15 13 16 20 21 25 29 32 34 35 35 35 35 37
49 50 49 50 50 51 51 52 51 52 51 45 39 33 26 14 20 21 25 24 24 26 25 26 24 20 14 9 2 4 5 11 13 13 14 17 22 24 26 29 34 34 34 33 34
50 50 49 49 50 51 49 41 37 41 34 22 22 19 16 19 21 20 21 23 23 24 22 22 19 16 12 12 10 6 6 9 10 10 13 16 19 20 23 26 27 31 32 35 38
50 49 49 50 50 51 48 31 32 33 30 26 23 21 21 23 21 18 19 19 21 19 18 17 17 17 16 14 12 10 10 8 11 14 17 19 18 19 22 24 26 29 30 32 34
50 50 50 50 51 48 34 34 34 36 30 23 20 19 18 19 19 19 18 18 20 16 16 14 14 14 14 14 14 12 11 12 11 16 18 21 21 23 21 23 26 27 29 30 32
51 51 50 50 47 33 35 36 35 38 26 21 17 19 17 18 19 18 16 20 18 17 16 15 15 13 14 14 14 13 11 11 13 17 15 20 16 23 25 25 26 27 29 30 32
51 51 50 49 42 34 36 37 37 38 20 15 14 18 19 17 17 17 15 19 18 14 16 14 15 14 15 16 13 13 11 12 13 13 17 16 15 19 22 21 23 27 27 29 31
50 50 49 45 43 37 37 39 38 29 16 13 15 15 16 16 15 15 16 17 17 14 17 18 18 26 17 17 15 12 11 14 14 12 11 18 15 16 18 20 22 24 24 26 26
50 49 48 40 36 36 38 35 28 20 17 13 14 16 17 16 15 15 16 15 11 15 15 18 16 23 25 18 17 14 13 7 9 9 12 18 16 19 21 21 21 21 22 24 27
49 48 47 39 39 39 38 31 25 18 15 19 19 19 17 14 14 15 15 12 11 14 18 21 21 29 23 21 21 16 15 8 6 6 6 11 14 16 22 22 23 22 23 24 28
48 46 42 42 42 39 33 27 25 20 18 21 21 19 15 13 16 16 16 13 13 16 19 19 22 20 20 20 27 22 15 20 17 19 14 17 17 16 21 20 21 24 26 31 35
43 39 39 42 43 39 32 29 23 21 22 24 23 21 18 18 18 17 16 17 14 16 19 22 21 20 17 20 19 23 21 22 31 15 11 16 13 11 17 20 21 24 28 32 44
43 33 40 40 38 35 31 22 19 23 25 26 25 23 22 22 21 21 20 20 22 18 21 20 20 19 18 21 22 32 27 27 26 20 18 10 16 17 19 20 21 26 30 43 51
40 31 40 33 30 35 27 18 28 24 28 27 28 27 28 25 23 23 23 22 25 25 21 23 26 21 17 15 21 19 25 26 29 29 17 16 18 30 28 26 30 28 31 42 54
35 33 37 35 35 31 26 21 18 23 27 26 27 28 28 26 28 29 26 24 23 26 27 32 28 24 19 15 16 17 21 23 24 26 27 27 28 35 28 29 31 31 30 48 55
34 29 30 33 32 31 31 27 22 24 25 29 30 30 29 26 27 26 25 25 32 35 40 39 32 27 20 16 32 30 29 20 25 27 23 23 24 35 28 25 27 31 30 32 54
34 31 33 26 29 31 33 31 25 24 26 28 28 27 27 30 27 27 28 29 31 37 38 37 33 28 25 21 19 18 15 12 13 16 19 17 19 31 34 32 26 28 28 28 48
32 33 33 31 32 31 33 30 27 24 26 27 28 28 30 30 30 30 29 32 35 38 38 39 32 30 27 24 20 15 13 12 12 13 12 13 14 19 25 25 25 26 26 28 36
40 39 37 33 28 28 29 32 31 33 31 28 29 29 29 29 31 32 33 34 36 37 36 36 35 30 25 21 19 17 13 11 11 13 13 10 15 18 19 22 26 27 26 28 31

GFSSW_sfc_dewp_036.txt.gz
Dewpoint
50 51 51 51 52 52 52 52 53 53 54 54 55 55 55 55 54 42 38 40 43 57 53 25 22 23 23 25 36 32 34 33 30 26 22 20 17 16 15 14 25 32 40 44 45
50 50 51 51 51 52 52 52 53 54 54 55 55 56 55 55 47 40 49 50 53 54 30 21 19 19 20 22 31 32 33 34 32 30 28 24 21 20 16 15 20 31 41 43 45
50 50 50 51 51 51 52 52 53 54 54 55 55 55 56 53 44 38 55 46 52 50 35 28 21 21 19 18 22 30 32 35 34 31 29 27 26 24 19 17 20 26 37 38 44
50 50 51 51 51 51 52 52 53 54 54 54 55 55 56 49 24 36 47 48 55 44 33 20 17 20 18 20 17 21 27 31 34 34 33 31 29 26 25 21 19 23 33 39 39
50 50 50 50 51 51 52 52 53 53 54 54 55 55 48 42 26 32 52 48 39 29 25 20 13 18 19 17 19 15 19 26 28 31 33 33 32 30 28 28 26 22 27 39 40
50 50 50 51 51 51 52 52 53 53 53 54 55 55 45 34 23 24 26 28 26 25 23 23 18 15 13 16 18 18 16 15 19 28 29 29 30 32 32 31 29 30 27 35 40
50 50 50 50 51 51 52 52 53 53 53 54 55 48 41 32 21 21 24 20 21 24 25 23 23 22 18 17 18 20 19 18 18 17 19 24 27 29 33 33 31 32 31 31 36
51 51 50 50 50 51 52 52 53 53 53 54 54 44 39 22 21 19 17 19 21 22 23 26 26 24 21 20 16 14 17 16 17 17 18 19 18 23 30 33 35 34 33 34 34
52 52 51 50 50 51 52 52 52 53 54 53 46 45 30 34 20 18 19 21 20 21 23 22 24 23 20 16 14 11 8 9 13 15 14 16 19 22 25 30 35 37 38 37 38
52 51 51 50 50 51 52 52 51 51 49 45 41 34 30 18 16 18 20 21 19 21 23 23 23 22 18 13 8 6 2 3 5 6 11 13 17 22 25 26 29 33 35 37 39
51 51 50 51 51 51 50 43 38 41 42 32 24 22 15 15 19 18 18 18 19 22 18 19 19 18 17 16 12 10 9 6 7 6 9 13 16 18 21 23 26 30 35 36 38
50 50 51 51 51 52 48 36 29 30 29 27 24 23 19 18 19 19 17 16 17 17 17 15 14 15 17 16 15 14 12 11 12 11 12 13 14 19 20 23 25 31 31 33 37
51 51 52 51 51 47 40 33 32 33 30 25 21 17 16 16 17 17 18 16 14 16 14 14 14 14 13 14 14 14 14 15 10 11 12 14 14 19 20 23 24 26 31 33 34
50 51 51 51 47 34 35 34 32 35 27 22 15 17 16 15 17 17 16 16 16 15 14 12 12 12 13 12 12 12 12 13 12 11 8 13 13 21 21 23 25 28 28 32 35
50 51 51 50 43 35 33 34 35 35 25 17 13 17 17 15 16 16 16 14 14 13 12 10 10 12 12 14 15 15 17 13 12 11 12 10 10 16 22 21 24 28 31 31 32
50 51 51 46 44 38 32 36 38 32 23 13 13 13 13 15 16 14 15 17 16 13 12 13 17 15 21 18 19 20 17 16 12 9 10 11 11 11 15 21 23 26 28 30 31
50 50 49 43 36 33 35 36 29 25 18 12 14 15 15 16 16 13 13 14 13 13 11 15 13 25 31 30 29 28 15 8 7 7 6 10 10 15 18 18 20 23 25 27 32
49 49 48 36 37 37 37 33 27 20 19 17 17 18 17 15 13 13 13 13 13 9 7 12 12 21 28 25 25 27 25 17 7 6 5 8 11 13 18 21 23 25 26 29 33
48 44 44 44 41 38 34 30 28 22 19 18 19 18 15 14 16 14 16 15 14 13 13 12 14 27 27 21 28 24 16 21 20 18 14 17 10 17 19 19 22 24 27 29 32
45 44 39 43 42 37 33 31 25 21 20 21 21 20 19 19 19 19 18 19 17 19 21 19 17 16 13 13 17 16 18 22 24 18 10 11 10 9 17 18 21 24 27 31 33
44 37 41 41 35 35 35 27 20 18 19 24 24 23 21 22 23 20 18 20 23 24 25 23 20 21 22 17 15 20 26 26 28 30 24 19 13 17 34 35 29 24 28 32 36
42 31 40 34 27 38 33 24 26 18 21 25 26 25 26 26 23 20 21 24 25 26 25 28 28 24 19 17 16 15 23 30 26 21 18 17 19 26 38 38 37 30 34 37 46
38 32 38 37 37 30 28 27 23 21 23 24 25 27 29 26 26 24 25 23 29 32 32 36 27 24 20 18 26 26 29 32 32 29 24 23 25 29 39 39 39 41 32 35 57
39 29 33 30 31 31 28 29 27 25 22 26 28 28 27 26 25 25 25 26 31 34 38 38 33 27 23 21 30 31 28 25 23 31 28 18 21 30 37 38 40 42 35 29 50
38 31 35 28 30 31 30 29 29 30 24 25 27 26 25 28 26 26 28 29 30 37 39 38 34 29 27 25 23 22 28 25 25 21 18 15 16 28 35 37 38 37 36 29 49
36 35 34 33 32 30 30 28 30 30 30 28 29 29 29 28 28 27 27 30 34 34 37 39 32 33 32 28 24 21 19 28 27 24 11 10 12 18 34 34 31 32 28 26 39
39 39 37 34 33 29 26 26 28 29 30 31 30 30 29 29 30 30 32 35 35 39 37 35 35 34 26 24 21 20 16 15 12 10 10 8 15 18 20 27 30 28 27 26 28

GFSSW_sfc_dewp_042.txt.gz
Dewpoint
51 51 51 51 52 52 52 52 53 53 54 54 55 55 55 55 55 50 43 45 48 54 56 38 25 21 23 23 24 28 29 29 36 37 36 36 34 35 33 29 29 29 42 49 51
51 51 51 52 52 52 52 52 53 53 53 54 55 55 55 56 52 48 49 56 56 56 37 28 26 27 20 21 22 24 32 31 31 34 34 33 34 35 35 34 34 29 46 50 50
51 51 51 51 51 52 52 52 53 53 53 54 54 54 55 56 48 41 55 58 58 55 41 36 32 27 19 20 20 22 22 32 33 33 33 33 33 33 32 32 34 30 30 49 52
52 51 51 52 51 51 52 52 52 53 53 53 54 54 56 52 30 41 57 58 58 50 40 36 29 20 18 18 20 18 19 21 26 29 29 29 30 29 29 31 33 36 33 42 50
52 52 52 52 52 51 52 52 52 52 53 53 53 54 52 45 44 40 58 58 53 44 39 36 25 19 13 16 17 18 17 17 18 20 28 29 28 27 27 29 32 34 35 31 49
51 51 51 51 51 52 52 52 52 52 53 53 54 54 50 36 40 31 53 45 42 36 29 28 24 24 22 20 19 15 18 17 16 18 19 20 23 24 25 28 29 32 36 33 37
51 52 51 51 51 51 52 53 53 52 52 53 54 51 44 33 37 29 40 28 20 22 24 26 26 24 25 22 22 20 17 17 17 18 19 21 18 19 20 25 29 31 31 32 33
51 51 51 51 51 51 52 53 53 52 53 53 54 49 38 40 40 33 18 17 21 21 22 22 25 25 24 24 21 18 17 13 15 14 18 19 16 19 21 21 21 24 28 30 36
52 52 51 51 51 51 51 52 52 53 53 53 49 45 41 45 26 21 18 20 21 22 21 20 25 24 25 20 18 16 13 13 13 12 13 17 16 19 21 20 20 20 22 24 28
52 52 52 51 51 51 51 52 51 51 49 47 44 41 38 30 20 22 23 23 20 21 22 26 22 21 21 20 17 12 11 12 11 8 11 8 10 12 16 16 19 20 20 22 25
52 51 51 52 51 51 49 44 29 34 41 39 40 39 37 29 22 21 26 22 21 18 16 20 15 17 19 21 21 20 17 15 15 16 16 13 14 15 16 17 16 18 19 21 24
51 51 51 51 52 52 47 40 33 28 28 31 31 30 30 27 18 20 26 20 22 16 17 16 14 16 15 13 14 15 15 14 17 17 14 16 16 16 16 15 16 17 19 19 24
51 50 51 51 51 48 41 42 39 33 29 29 29 29 28 23 19 19 20 18 16 15 15 15 14 15 12 11 19 21 17 23 19 16 18 17 15 15 16 17 17 18 21 23 25
50 50 50 50 45 42 38 36 35 33 28 29 20 18 17 18 19 19 21 17 17 12 14 13 14 12 12 15 25 20 26 26 24 23 16 15 11 13 15 15 16 15 16 20 24
49 49 49 49 44 36 38 40 38 36 23 28 17 19 17 15 19 19 20 18 15 13 14 13 13 12 12 25 27 22 28 27 26 24 20 17 13 14 13 12 12 13 17 19 21
49 49 49 46 46 41 42 39 38 33 25 15 16 17 15 16 17 19 18 21 19 16 16 15 15 17 24 28 28 27 28 25 23 22 16 17 14 14 13 12 11 13 18 17 17
49 49 48 46 36 40 38 38 31 29 27 18 18 19 19 19 20 21 19 16 14 15 14 12 11 25 29 25 26 24 25 21 17 15 12 16 14 14 15 14 28 35 35 36 36
48 48 48 46 42 40 38 33 27 28 19 20 19 19 20 21 22 24 20 19 21 20 17 16 19 19 27 21 18 20 27 23 19 17 18 22 18 16 22 33 36 35 35 35 37
47 45 45 45 45 40 35 29 29 24 18 18 19 20 21 23 22 24 24 21 24 27 24 23 22 25 23 23 24 25 26 28 27 28 27 24 22 22 33 34 35 34 33 32 36
42 44 44 45 43 38 33 33 30 31 22 22 22 23 23 23 24 24 23 26 24 29 27 28 24 24 24 24 22 22 22 19 27 20 18 19 20 20 29 32 34 31 30 32 35
42 39 42 40 38 37 31 32 31 27 25 25 21 23 25 26 24 23 23 24 30 30 30 32 29 26 26 23 20 20 25 29 30 29 22 18 17 34 34 34 33 31 30 33 35
40 36 41 35 28 35 33 32 31 28 31 25 28 28 28 27 25 25 24 27 32 32 29 33 31 28 25 27 27 25 25 27 21 21 27 23 22 33 35 34 33 31 33 37 37
39 39 40 36 28 29 29 29 28 27 31 29 27 28 28 25 25 29 29 30 31 32 31 33 29 27 24 22 29 28 29 33 32 31 25 24 24 34 37 36 32 34 37 36 40
39 34 35 37 34 31 30 30 27 31 31 29 30 29 30 29 29 28 27 29 30 32 37 38 35 30 25 26 30 30 29 29 30 27 26 26 24 27 30 35 33 36 36 35 38
37 34 34 30 29 31 33 31 29 28 29 28 28 30 30 27 27 27 28 29 32 37 39 38 34 33 32 33 32 31 30 30 28 29 25 24 24 25 27 31 33 36 38 34 32
34 32 34 32 32 31 33 29 30 29 28 27 29 30 29 27 27 27 28 31 31 34 36 40 33 33 30 30 30 29 32 30 29 27 26 26 22 23 25 25 29 31 33 33 29
39 39 36 32 31 29 29 29 30 32 29 29 27 28 29 30 32 31 32 33 32 32 33 35 34 32 25 28 28 26 31 31 32 30 26 22 23 38 37 37 32 30 29 25 26

GFSSW_sfc_dewp_045.txt.gz
Dewpoint
51 51 51 52 52 52 52 52 52 53 53 53 54 54 55 55 55 50 42 37 48 55 54 38 28 23 22 22 25 29 30 32 37 37 36 37 34 36 37 35 36 36 38 42 60
52 51 51 51 51 51 52 52 52 52 53 53 53 54 55 55 50 49 51 52 56 55 35 26 25 27 19 21 22 22 28 29 33 37 35 32 32 32 33 32 33 35 36 36 55
52 52 52 52 52 52 52 52 52 52 52 53 53 54 54 54 46 42 55 56 59 54 42 38 35 28 20 20 21 21 25 31 33 33 33 33 32 31 31 30 35 33 35 35 48
51 52 52 51 51 51 52 52 52 52 52 52 53 54 55 51 29 41 55 60 57 50 41 37 28 20 16 18 20 18 20 21 23 25 27 26 26 25 25 26 30 33 35 36 34
50 51 52 51 51 51 51 51 51 52 52 52 53 54 51 42 43 46 59 57 52 48 38 36 24 20 20 14 17 17 18 18 18 17 18 21 23 25 24 25 28 31 35 35 34
50 51 51 51 51 51 51 51 51 51 52 52 53 54 47 24 36 39 50 47 47 42 33 34 23 24 21 22 21 19 20 19 19 17 18 18 17 21 20 24 24 28 31 34 34
52 52 52 51 50 51 51 51 51 52 52 53 53 52 45 27 36 38 45 37 34 34 27 26 26 24 25 20 23 21 17 17 16 16 17 20 17 17 20 24 22 23 28 33 34
53 52 52 51 51 51 51 51 52 52 53 53 53 49 37 37 41 39 32 26 19 25 21 21 24 25 24 23 21 17 16 12 14 15 14 19 14 17 21 21 22 21 22 27 32
53 53 52 52 51 51 51 52 52 52 53 53 48 43 37 45 33 27 18 20 21 22 22 19 25 24 23 20 19 16 10 15 13 14 12 18 16 17 15 16 17 20 22 24 26
51 52 52 51 51 51 51 51 50 51 51 51 45 41 36 33 29 22 20 21 21 20 22 23 23 20 20 20 16 16 14 14 12 12 12 10 13 16 17 17 16 17 18 19 22
51 51 51 50 50 51 49 41 30 30 43 31 38 38 37 35 29 20 24 23 22 17 15 19 15 16 17 20 20 20 20 19 19 19 15 14 15 16 17 17 16 17 18 20 22
50 50 50 51 51 51 47 38 35 30 27 30 30 35 37 32 27 25 25 18 20 15 18 15 13 15 17 15 18 18 16 20 21 24 20 17 16 17 19 17 16 17 19 19 21
50 50 50 50 50 46 39 38 39 35 29 28 31 30 30 30 28 22 20 19 16 14 14 13 13 16 15 16 22 22 24 24 24 25 23 19 16 16 18 17 16 17 18 20 22
50 50 50 50 43 40 37 39 39 33 27 30 27 27 26 19 18 20 21 18 17 12 13 13 14 13 12 14 24 17 23 26 26 24 19 22 16 17 18 17 16 15 15 17 17
49 49 49 49 42 36 37 40 39 36 20 29 19 19 17 15 18 20 22 18 15 13 13 12 14 13 13 15 26 19 28 27 25 23 22 20 16 15 17 16 17 17 17 24 26
49 49 49 46 45 43 42 38 37 31 25 19 18 19 17 16 17 18 21 19 19 16 16 14 16 14 14 26 27 28 25 24 23 22 18 16 16 12 12 16 16 25 34 35 36
49 49 48 45 35 40 40 37 30 26 24 20 19 19 21 21 23 24 21 15 15 14 13 13 13 26 29 24 22 22 21 17 17 14 15 20 19 15 18 17 28 32 34 35 36
48 48 48 45 43 42 37 32 28 30 19 21 20 19 22 24 23 25 24 21 26 22 19 17 19 20 27 21 18 18 22 19 16 17 17 20 20 21 26 32 35 35 35 35 34
47 44 44 45 45 39 34 28 28 30 28 21 21 21 23 24 23 24 23 22 27 27 23 23 23 25 25 24 23 24 24 25 22 23 21 22 25 23 30 30 33 33 33 32 30
41 43 42 45 39 38 33 32 31 30 28 25 22 24 22 24 24 23 23 26 28 30 27 26 25 26 25 26 24 22 25 21 26 20 17 20 21 20 23 23 31 31 30 30 29
42 38 41 37 38 37 30 31 31 28 31 26 21 22 25 25 25 24 23 25 30 29 30 29 27 26 27 25 22 22 22 27 26 27 21 16 17 25 27 33 32 30 31 30 30
39 35 41 35 29 33 31 32 32 28 32 29 28 28 26 26 25 24 25 25 32 32 28 32 29 27 26 26 28 27 26 25 23 21 25 23 19 31 31 32 33 33 33 32 32
39 38 43 35 27 27 29 30 29 27 31 29 29 29 30 26 25 27 29 30 31 30 30 32 29 26 23 23 27 27 30 32 33 32 26 23 20 28 34 35 34 34 32 32 34
38 31 34 35 32 30 31 31 30 31 30 29 29 30 30 28 28 27 28 30 30 31 36 36 34 30 24 26 30 30 30 33 34 29 25 25 24 26 30 30 29 31 33 34 36
36 32 33 28 29 30 31 32 29 28 30 28 27 29 29 26 27 26 28 28 29 35 37 37 32 32 30 31 31 31 30 30 30 32 30 26 26 27 28 29 29 32 33 35 33
33 32 34 32 32 30 30 29 29 31 31 30 27 29 28 27 27 26 28 28 29 32 35 39 31 33 31 29 28 27 27 28 28 30 31 30 28 29 31 37 38 38 38 32 31
38 37 35 31 30 27 28 30 30 32 31 31 30 28 28 30 32 32 32 32 31 31 32 34 35 33 26 27 28 26 31 33 32 32 34 29 32 37 36 35 36 36 40 40 43

GFSSW_sfc_dewp_048.txt.gz
Dewpoint
52 52 52 52 52 52 51 51 52 52 52 53 53 53 54 54 54 49 44 39 48 51 54 37 25 24 22 23 27 33 31 34 36 36 36 37 35 36 35 35 33 36 37 38 62
52 52 52 51 51 51 51 51 51 52 52 52 53 53 54 54 49 48 51 50 53 54 32 27 25 28 19 21 23 25 28 29 33 37 35 34 34 33 32 31 32 34 34 35 60
50 51 52 52 52 51 51 50 51 52 52 52 53 53 54 54 44 39 55 55 57 51 41 38 35 26 19 20 21 23 25 31 32 30 31 30 28 27 26 25 34 29 30 31 37
51 51 51 50 50 51 51 51 51 51 52 52 52 53 54 49 32 39 59 58 56 48 39 37 27 17 15 18 18 18 21 21 21 20 21 21 23 21 22 23 26 29 30 33 36
52 52 52 51 51 51 51 51 51 51 51 52 52 53 49 35 37 45 59 55 50 45 37 35 23 18 21 19 20 17 19 19 19 19 17 17 17 18 18 22 24 27 29 34 34
52 52 52 52 51 51 51 50 50 50 50 52 52 53 45 18 28 40 47 49 47 42 33 34 23 24 21 21 20 21 21 19 18 17 17 17 16 17 19 23 22 25 28 30 33
52 52 52 51 51 51 50 50 50 50 51 52 52 52 43 18 34 39 44 39 37 37 29 30 26 23 23 20 22 22 17 16 15 16 16 18 17 17 19 23 22 23 22 24 28
52 51 51 51 51 51 52 52 52 52 52 52 53 49 32 34 39 42 36 32 31 33 25 22 25 24 23 23 21 17 13 7 11 16 14 18 12 19 17 17 19 22 22 24 26
50 50 50 50 50 51 51 52 52 52 52 53 47 41 35 44 37 32 24 20 20 22 24 23 25 23 22 20 19 17 13 16 13 15 13 16 16 19 18 16 17 19 27 20 21
51 51 51 50 50 51 51 51 50 52 51 50 46 40 36 34 33 29 21 22 22 20 19 22 22 20 20 19 13 15 16 16 16 16 20 18 16 16 18 18 17 18 19 21 22
49 50 50 50 50 51 48 40 31 29 44 29 35 35 34 35 31 23 23 21 21 17 15 18 15 16 17 19 19 20 19 19 20 20 22 19 19 19 19 19 18 18 19 21 24
49 49 48 49 50 51 45 37 37 33 28 31 32 36 36 34 28 29 26 20 19 14 18 14 12 15 17 16 17 18 17 21 23 23 23 21 19 20 19 19 19 20 19 20 21
50 48 48 49 50 44 39 38 39 35 30 28 30 30 30 31 28 28 20 19 16 15 14 12 11 16 15 15 22 20 21 22 24 27 24 21 11 17 19 20 19 19 21 20 21
50 48 49 49 42 39 37 39 39 33 28 27 25 25 28 26 23 26 21 18 17 13 14 12 14 14 13 12 21 16 22 26 26 21 16 21 14 12 18 19 20 18 18 19 20
50 49 49 48 41 37 38 40 39 35 18 28 21 20 18 15 18 19 21 18 16 13 13 12 14 13 13 12 23 16 26 25 23 21 22 21 19 14 14 13 16 17 18 21 33
50 49 49 46 44 43 42 39 37 28 23 24 21 20 21 20 20 24 22 19 19 15 16 14 16 14 14 23 26 26 24 21 22 21 17 19 18 14 12 13 16 20 26 33 35
49 49 48 44 33 40 40 36 28 25 27 21 19 20 22 23 24 26 22 22 16 14 14 16 12 23 28 22 21 21 18 15 12 12 13 18 19 18 21 21 20 22 28 33 35
49 48 47 45 43 43 36 32 25 29 25 25 20 21 23 24 24 24 24 20 26 22 19 17 17 24 26 22 21 19 19 16 12 13 11 17 18 20 25 26 31 34 35 35 35
47 44 44 44 45 38 34 28 27 29 28 27 21 23 23 24 23 23 22 23 26 26 21 22 23 25 25 25 23 24 21 22 19 21 17 18 21 25 25 26 33 33 33 33 32
42 42 41 41 39 37 32 31 31 30 28 27 21 23 21 23 23 23 23 25 28 29 26 25 23 26 26 26 24 23 25 21 24 19 16 16 18 18 22 25 26 27 29 29 31
41 37 41 41 38 35 28 30 32 28 30 30 22 21 23 24 24 24 23 25 29 29 29 28 26 25 27 25 22 22 21 26 24 25 19 16 15 24 21 23 24 28 30 32 32
39 32 40 36 30 31 29 32 33 28 32 30 29 27 26 25 24 24 25 26 31 31 28 30 28 26 26 27 28 25 25 25 25 22 25 22 18 23 25 28 31 31 32 34 32
39 37 42 35 26 26 29 30 30 27 31 28 28 29 30 26 26 26 27 31 31 29 29 31 27 23 22 22 27 27 29 31 32 32 25 23 20 25 30 30 30 33 31 30 31
36 30 33 33 31 29 29 30 30 32 30 28 27 30 29 28 28 27 28 30 30 30 34 35 30 26 21 23 27 28 29 30 32 28 26 27 26 28 30 30 31 32 31 32 37
33 30 31 22 27 29 28 31 30 28 31 31 27 28 28 26 26 27 28 28 30 33 33 34 31 30 30 32 31 28 28 29 29 29 29 27 28 30 32 33 33 35 38 36 39
32 30 32 30 32 30 28 27 28 30 30 29 28 29 28 26 26 26 27 28 28 31 34 34 32 33 29 29 30 29 30 28 27 28 29 34 33 33 33 36 36 36 36 36 40
37 36 34 29 28 27 25 29 29 30 31 32 31 30 28 29 30 31 31 31 31 31 33 35 35 32 26 28 28 26 27 30 31 33 36 32 27 31 34 35 35 36 36 37 40